Presure
202 172 151 181 182 169 176 173 118 121 136 153 149 138 126 127 164 134 147 177 137 169 146 153 150 182 90 87 88 103 88 178 166 156 153 126 166 108 124 99 156 159 103
208 185 201 170 187 178 167 163 163 126 127 155 137 144 170 176 173 127 158 126 171 134 144 139 139 148 106 179 81 150 154 109 140 122 113 142 144 195 143 176 160 152 142
301 216 236 203 172 172 176 171 171 175 130 150 152 164 154 134 170 141 140 140 139 141 163 141 173 155 146 156 142 133 151 130 92 87 143 148 157 150 131 152 142 125 150
321 290 190 193 198 189 169 178 148 175 177 166 157 136 145 154 155 152 175 137 130 136 141 148 179 141 140 141 156 148 152 177 141 89 140 112 91 107 111 100 146 141 176
266 323 318 278 189 197 197 188 179 181 174 126 166 172 178 133 134 149 177 150 156 178 169 140 136 152 149 168 181 145 125 137 136 163 180 91 91 91 172 88 192 102 99
254 251 325 309 266 198 208 194 164 185 180 179 182 142 141 152 156 168 154 154 147 144 172 144 146 169 153 145 175 148 145 173 155 143 152 163 134 171 151 144 152 122 87
253 244 284 319 304 334 217 188 204 191 178 184 178 187 174 156 152 125 126 182 175 165 162 162 185 148 142 154 178 133 140 154 168 154 147 147 152 142 152 139 145 167 162
321 246 246 324 344 315 338 258 195 186 226 196 192 185 176 179 175 184 185 172 171 176 134 178 183 182 145 139 144 177 179 180 145 181 132 156 144 131 181 206 152 136 138
307 318 248 380 325 329 320 355 266 216 192 195 216 190 218 191 177 177 179 186 175 160 175 178 185 188 186 186 181 155 172 181 146 161 142 151 195 159 147 151 142 149 137
304 307 283 262 384 335 323 316 336 289 254 222 188 195 213 216 216 200 181 177 183 203 199 206 206 202 200 191 167 199 195 190 157 140 137 176 177 140 138 196 146 137 142
285 303 309 310 307 373 350 309 311 317 321 254 251 209 181 187 198 205 205 211 201 192 202 168 169 185 182 188 154 151 176 186 189 154 184 183 215 168 161 162 201 128 147
283 283 289 303 294 254 344 377 305 299 303 310 293 248 250 240 183 179 178 181 181 180 172 175 131 206 202 209 203 202 219 220 227 225 222 133 190 222 205 204 192 180 225
256 269 282 278 300 306 254 308 352 373 295 299 301 305 313 254 250 255 256 257 247 240 197 212 183 183 200 194 184 199 184 187 206 217 206 186 210 187 201 188 188 195 212
262 262 258 276 279 279 297 247 298 309 343 311 279 259 251 282 312 291 259 251 246 245 247 248 226 225 196 214 209 208 211 208 209 206 200 218 216 213 212 215 218 222 220
313 271 262 261 265 276 276 276 283 210 289 296 257 251 249 248 289 303 304 305 300 259 252 245 243 245 248 245 239 231 229 228 226 230 239 236 235 233 233 234 235 235 231
295 303 309 305 264 263 270 277 279 270 292 310 192 298 315 237 239 239 240 309 300 295 295 291 256 256 257 242 234 231 234 236 233 235 245 245 245 247 246 243 237 250 248
305 309 309 302 305 313 288 265 267 276 280 268 266 306 308 270 251 251 253 263 331 311 326 321 297 290 291 292 296 272 261 247 254 251 243 243 258 254 263 265 261 249 257
294 296 301 312 320 323 315 316 316 288 265 268 277 278 274 287 313 288 240 231 285 263 268 311 336 332 343 318 301 295 294 294 292 291 286 287 281 267 267 279 253 249 251
291 302 285 290 386 479 348 339 318 316 318 306 280 269 272 276 288 282 284 301 249 236 228 290 353 338 352 349 344 337 334 336 345 346 349 344 339 331 323 317 318 292 328
289 298 295 309 392 414 480 440 398 326 314 313 315 307 290 273 267 275 293 289 280 277 309 311 304 295 289 289 332 357 363 359 353 351 351 342 335 341 344 343 356 353 344
282 288 290 293 291 337 363 509 459 418 362 316 307 310 312 304 292 278 270 267 283 292 284 277 292 312 309 301 293 263 281 267 271 266 294 327 339 313 338 336 331 329 326
283 283 284 278 284 300 305 331 366 523 447 413 305 304 305 308 308 302 292 282 269 263 272 289 284 279 277 278 280 292 287 284 293 276 281 293 267 309 324 332 330 327 328
292 287 285 276 273 273 292 295 307 322 363 521 437 412 303 298 304 306 307 305 296 283 272 263 261 276 279 281 280 272 271 268 265 265 266 265 265 280 258 259 276 279 284
299 297 292 292 287 270 272 282 292 283 310 326 417 509 453 332 304 297 302 301 305 302 292 284 277 269 257 261 267 273 270 259 276 272 273 270 263 267 265 276 278 276 270
312 308 306 305 302 301 294 273 281 289 289 296 316 345 427 487 484 329 299 302 300 303 302 303 300 292 278 270 264 258 256 263 263 262 269 284 271 276 261 265 262 277 271
315 313 312 309 307 305 301 294 298 292 282 288 305 307 349 360 427 459 480 354 298 299 297 302 304 302 301 294 282 274 272 263 260 260 256 257 263 274 266 263 259 263 202
Wind_Speed
137 120 115 137 141 137 140 140 78 79 93 101 106 93 83 83 97 84 95 90 85 89 90 81 87 91 61 54 54 63 53 68 75 78 77 65 75 58 63 48 71 70 48
135 125 142 120 147 141 129 122 130 92 91 111 96 102 112 118 113 85 98 84 92 89 90 86 85 89 62 93 50 85 83 69 77 64 65 75 73 88 71 77 78 72 69
97 119 125 147 126 131 142 137 136 145 101 117 110 124 108 95 122 99 95 96 94 95 99 92 103 91 91 94 89 73 89 71 52 55 78 80 83 79 68 78 70 66 75
85 103 131 129 149 148 129 146 116 140 143 131 115 101 111 113 105 101 110 94 88 93 96 100 113 94 93 92 100 94 93 94 82 59 82 69 60 67 67 63 77 74 84
98 87 98 118 138 147 155 152 147 150 142 97 132 138 142 95 97 109 129 109 107 123 108 98 92 100 101 101 111 95 74 89 84 94 106 59 58 58 91 60 100 64 66
106 109 89 105 121 142 145 149 130 154 151 143 148 110 108 115 116 129 116 113 110 106 110 107 107 108 104 102 116 100 97 106 100 91 96 98 78 97 89 81 84 74 61
102 110 96 95 109 104 143 143 146 148 146 153 147 154 136 123 120 90 88 143 130 120 116 120 134 109 103 100 116 89 93 105 105 105 97 94 95 85 85 80 82 98 94
71 107 106 88 92 104 104 133 144 143 146 155 157 158 141 141 132 149 149 125 122 131 95 133 142 140 107 101 106 118 126 129 99 118 83 104 92 79 108 112 95 78 78
74 74 102 67 93 96 105 99 132 145 143 144 151 155 152 160 144 138 136 146 130 121 135 138 142 142 140 137 122 113 111 122 102 112 90 101 119 106 92 90 87 89 79
74 75 87 100 67 95 99 106 103 124 135 142 142 145 150 151 152 153 151 138 142 148 149 145 144 146 146 141 120 141 138 129 107 100 95 116 113 89 86 117 91 85 89
78 75 76 80 85 69 95 102 105 108 111 135 137 145 138 142 152 151 153 146 151 151 151 117 125 132 125 128 108 105 127 133 124 117 124 123 127 113 112 106 112 85 101
78 81 81 81 87 103 77 77 104 109 112 113 122 137 138 140 140 137 136 140 141 139 129 128 98 145 144 144 143 141 142 137 138 132 130 94 117 127 119 118 110 105 117
90 84 83 87 84 84 104 91 80 82 112 114 117 119 119 138 138 138 139 140 142 144 148 147 138 137 142 139 133 139 131 126 134 132 128 120 126 115 118 114 114 115 118
90 91 92 87 89 92 88 109 96 96 87 101 119 125 128 125 122 131 138 139 139 140 140 140 142 142 141 140 140 139 139 138 136 133 131 131 128 126 126 127 126 123 121
78 89 94 95 96 93 96 98 97 104 102 104 119 122 123 125 122 122 124 126 129 137 138 137 137 136 137 137 136 136 135 134 133 132 131 130 129 129 129 127 127 125 124
75 78 82 90 98 99 99 98 99 104 98 96 92 105 100 124 125 125 125 122 126 128 129 130 134 134 135 135 136 135 133 133 132 132 131 130 129 128 126 124 123 123 122
67 72 79 86 90 92 98 103 103 102 103 109 111 100 100 115 121 121 122 122 105 117 115 120 129 129 129 128 127 129 129 130 129 128 127 127 127 126 127 126 125 120 120
67 70 73 75 78 85 93 96 99 105 108 108 107 108 109 106 100 108 121 121 108 114 121 109 104 108 103 119 127 127 127 126 125 125 124 123 122 123 123 121 120 118 118
65 64 75 76 58 54 85 92 98 101 103 107 110 110 109 108 106 108 108 104 119 120 119 108 90 97 95 97 99 102 104 103 100 101 101 104 106 106 109 112 108 120 107
61 58 60 55 37 49 52 72 79 101 104 106 107 109 111 111 111 109 105 105 107 108 99 98 99 101 103 101 89 87 89 91 91 91 90 90 91 90 89 88 80 79 84
61 60 59 56 61 41 40 49 70 80 94 107 108 108 109 110 112 111 110 109 105 102 103 104 100 95 95 95 96 100 98 101 94 93 89 85 83 88 81 79 79 79 80
60 61 61 63 58 52 49 41 43 49 79 87 107 108 108 108 109 109 110 110 109 108 105 101 101 101 100 99 96 93 94 93 89 91 88 84 91 80 78 76 76 75 75
61 61 61 62 63 60 56 55 52 48 48 43 85 91 108 107 107 107 107 108 108 108 108 107 105 101 99 97 96 96 96 94 94 91 90 89 87 82 87 86 79 78 76
62 62 62 60 61 64 62 60 59 63 54 53 48 44 77 106 107 108 107 107 106 106 108 108 106 104 103 101 98 95 95 95 90 89 88 88 87 84 82 77 76 76 76
61 62 62 62 63 61 62 63 63 63 62 61 60 61 47 46 60 105 108 107 106 105 105 104 104 104 103 103 100 100 98 95 93 92 87 83 85 81 83 79 78 74 74
57 58 58 58 60 60 61 62 63 65 65 65 66 64 63 61 47 46 48 102 107 107 106 104 103 101 101 102 102 101 99 97 94 93 91 88 85 82 82 79 79 76 85
Wind_Direction
229 232 233 235 235 239 240 241 239 242 240 229 231 240 240 241 234 241 238 259 244 257 243 266 242 270 242 242 240 243 241 257 251 250 252 251 254 250 254 247 261 260 247
230 230 230 233 233 235 240 241 243 240 244 246 241 236 249 254 246 240 234 243 244 246 243 246 248 247 261 272 248 251 248 247 249 250 247 254 251 290 256 267 259 261 260
230 230 230 229 235 237 237 241 242 243 239 245 246 249 234 243 252 242 241 243 244 245 244 245 258 260 249 247 253 266 252 263 248 244 256 255 261 257 258 259 261 256 261
231 230 231 231 229 233 237 238 236 242 242 245 242 245 243 242 235 246 252 243 245 246 247 247 266 249 249 250 248 252 252 270 252 252 253 251 247 249 255 249 261 259 274
229 229 229 229 232 232 233 236 238 242 240 240 246 249 251 247 246 239 255 238 247 259 247 248 249 245 249 250 269 253 253 255 256 255 274 256 257 257 272 252 281 257 253
230 230 230 229 230 232 232 234 238 238 243 244 243 243 244 248 249 253 250 244 244 245 252 248 248 249 256 252 266 252 254 267 254 258 257 260 258 275 261 261 267 270 260
231 231 230 231 230 230 232 234 235 237 238 241 247 246 246 247 247 245 245 254 256 250 256 252 263 252 252 259 258 254 257 257 255 255 258 258 259 260 265 261 264 266 263
241 233 232 231 231 231 231 232 235 237 235 239 241 244 250 250 248 250 252 254 255 258 248 260 260 261 252 252 253 265 267 269 256 270 257 257 261 258 274 278 264 264 265
240 238 232 235 232 232 232 234 233 236 237 239 239 241 239 246 251 253 253 253 254 254 257 258 260 261 262 262 262 255 260 266 258 259 259 260 273 263 262 265 264 267 262
240 239 233 232 237 230 234 235 235 235 236 238 240 241 241 242 243 246 252 256 257 255 258 258 259 260 261 260 259 265 267 264 259 257 257 267 267 260 260 273 265 262 265
238 240 240 236 233 238 232 236 238 237 237 237 238 240 243 244 244 245 247 245 250 255 254 249 250 258 258 260 255 257 264 267 263 258 261 267 268 264 263 265 269 250 264
239 238 238 240 237 234 238 238 236 239 240 240 239 239 240 242 245 247 248 250 250 251 253 254 250 257 259 257 261 262 259 260 260 261 262 249 263 267 270 271 271 267 270
238 238 239 237 240 241 235 235 239 239 239 240 242 243 243 242 242 243 244 245 246 247 252 252 255 257 258 260 261 262 263 262 263 261 264 267 266 265 267 267 268 268 269
238 239 238 239 239 238 241 236 237 237 240 240 240 240 240 243 246 245 244 245 246 247 248 249 251 253 256 256 257 258 259 261 262 263 264 263 264 266 266 267 268 268 268
243 241 241 240 239 240 239 239 240 238 239 239 239 240 241 242 243 247 250 251 251 249 249 250 251 252 253 253 254 255 256 258 259 260 261 261 262 263 264 265 266 267 267
243 244 245 244 242 242 241 241 240 240 242 243 243 241 243 243 243 244 245 244 247 251 253 252 250 252 253 252 253 255 255 256 257 258 260 261 262 263 264 264 265 267 268
246 246 246 246 247 247 245 243 243 242 242 241 241 244 244 243 244 244 246 246 247 247 247 247 251 254 255 256 256 255 256 256 257 258 259 261 262 263 265 265 266 267 268
250 251 251 251 249 246 246 246 245 245 244 243 243 243 243 244 246 246 245 246 247 248 249 250 250 250 251 251 253 255 257 259 260 261 262 263 263 263 263 266 264 265 266
250 252 253 253 254 244 247 243 244 245 245 245 245 244 244 244 245 245 245 248 246 248 249 249 248 249 251 252 252 253 253 254 255 256 257 258 259 260 261 262 262 265 265
254 257 253 257 273 259 245 237 241 241 243 243 243 244 245 245 244 244 246 246 246 247 250 250 251 251 252 252 253 252 252 252 254 256 257 257 259 260 260 261 262 262 264
256 258 256 257 256 271 273 251 241 239 240 241 243 243 243 244 244 245 244 245 246 247 247 248 250 253 253 253 253 253 254 254 255 256 257 257 257 259 260 261 262 262 264
254 256 257 254 256 261 262 269 268 253 241 241 241 243 244 244 244 244 245 246 246 246 247 248 248 249 250 251 251 253 253 254 257 255 257 260 257 260 260 260 260 261 262
255 254 254 254 256 256 261 259 262 263 263 254 241 241 241 243 245 245 245 245 246 246 247 247 247 249 249 250 251 252 252 252 253 254 255 255 256 259 256 258 261 261 262
259 259 258 258 256 255 258 261 259 255 261 261 253 253 244 242 241 243 244 245 246 246 247 247 247 247 247 248 249 251 251 251 252 253 254 255 255 256 257 259 260 261 261
264 265 266 265 263 262 257 255 257 259 256 256 258 254 251 251 247 242 244 243 243 245 246 246 247 247 248 248 248 248 249 250 251 251 252 254 254 255 255 256 257 259 259
268 267 267 266 266 265 262 259 259 257 256 258 258 255 252 251 250 249 248 243 244 244 244 244 245 246 246 247 248 249 250 250 250 251 251 252 253 254 253 254 255 255 258